Regional Weather Roundup
Issued by NWS New Orleans/Baton Rouge, LA

Home | Current Version | Previous Version | Text Only | Print | Product List | Glossary Off
Versions: 1 2 3 4 5 6 7 8 9 10 11 12 13 14 15 16 17 18 19 20 21 22 23 24 25 26 27 28 29 30 31 32 33 34 35 36 37 38 39 40 41 42 43 44 45 46 47 48 49 50

288
ASUS44 KLIX 251110
RWRLIX
NEW ORLEANS REGIONAL WEATHER ROUNDUP
NATIONAL WEATHER SERVICE NEW ORLEANS LA
600 AM CDT SAT OCT 25 2014

NOTE: "FAIR" INDICATES FEW OR NO CLOUDS BELOW 12,000 FEET WITH NO
      SIGNIFICANT WEATHER AND/OR OBSTRUCTIONS TO VISIBILITY.
      SKY/WX - SKY CONDITION AND SIGNIFICANT WEATHER.
      TMP - AIR TEMPERATURE.     DP    - DEWPOINT TEMPERATURE.
      RH  - RELATIVE HUMIDITY.   PRES  - PRESSURE.
      HI  - HEAT INDEX.          WCI   - WIND CHILL INDEX.

*  THESE STATIONS ARE NOT NWS OR FAA STATIONS AND ARE NOT UNDER
   NWS QUALITY CONTROL.

LAZ038-040-048-061>063-065>067-069-251200-
SOUTHEAST LOUISIANA

CITY           SKY/WX    TMP DP  RH WIND       PRES   REMARKS
N.O. AUDUBON     N/A     59  54  84 MISG        N/A
N.O. INTL ARPT CLEAR     59  51  75 NE8       30.12R
N.O. LAKEFRONT CLEAR     65  54  67 NE10      30.12R
N.O. DOWNTOWN*   N/A     63  48  59 MISG      30.12R
SLIDELL        CLEAR     47  43  86 CALM      30.11R
BATON ROUGE    CLEAR     47  45  93 CALM      30.13R
BOOTHVILLE     CLEAR     68  58  70 N7        30.10R
BELLE CHASSE   CLEAR     49  46  90 CALM      30.11R
BOGALUSA*        N/A     44  41  89 CALM      30.13R
NEW ROADS*       N/A     46  45  96 CALM      30.13S
GONZALES*        N/A     49  49 100 CALM      30.13R
HAMMOND*       CLEAR     46  43  87 CALM      30.13S
HOUMA*         CLEAR     54  51  88 CALM      30.12R
PORT FOURCHON* SUNNY     64  55  72 N6        30.14R

$$

MSZ070-080>082-251200-
SOUTHERN MISSISSIPPI

CITY           SKY/WX    TMP DP  RH WIND       PRES   REMARKS
MCCOMB         CLEAR     50  44  80 CALM      30.12R
GULFPORT       CLEAR     49  46  90 CALM      30.10R
BILOXI         CLEAR     54  47  77 N7        30.10R
PASCAGOULA     CLEAR     43  42  97 CALM      30.10R

$$

COASTAL OBSERVATIONS
LAKE AND NEARSHORE STATIONS

STATION/POSITION TIME  TEMP    WIND        PRES    WAVE
                       AIR SEA DIR/SP/G            HT/PER
                 (UTC) (F)     (DEG/KT/KT) (MB)    (FT/S)
PASCAGOULA       1100   54     350/  7/  9 1018.4
WAVELAND YACHT   1100   59     310/  3/  7 1018.5
GRAND ISLE       1100   66 71   40/ 11/ 16 1019.5
SOUTHWEST PASS   1100   70 80              1018.7
NEW CANAL        1100   66 69   40/ 12/ 13 1020.0
SHELL BEACH      1100   65 66   30/ 13/ 14 1019.3

OFFSHORE STATIONS

STATION/POSITION TIME  TEMP    WIND        PRES    WAVE
                       AIR SEA DIR/SP/G            HT/PER
                 (UTC) (F)     (DEG/KT/KT) (MB)    (FT/S)
64 S DAUPHIN ISL 1035   72 78   20/ 16/ 19 1018.4    3/ 5

$$




USA.gov is the U.S. government's official web portal to all federal, state and local government web resources and services.